Вернуться в каталог

TELEOS 2

АктивенНаукаVLEO
NORAD 56310·PAYLOAD·🇸🇬 Singapore

Запущен Apr 22, 2023 с Satish Dhawan Space Centre

Loading…

Ближайшие Пролёты (ближайшие 24 часа)

TLE

СвежийSource: Space-Track

Эпоха: Sep 14, 2026, 11:15 UTC

1 56310U 23057C   26257.46877118  .00004262  00000-0  30692-3 0  9993
2 56310   9.9885 274.1131 0000770 276.3982  83.6144 14.96387121186199

Отслеживайте TELEOS 2 в реальном времени с AllMySat

Download on the App Store